[Iaude] MPEC S08: 2016 RG40 [a=2.72,e=0.55,i=14.8,H=18.8]

mpec at mpc.eps.harvard.edu mpec at mpc.eps.harvard.edu
Mon Sep 19 11:17:16 EDT 2016


M.P.E.C. 2016-S08                                Issued 2016 Sept. 19, 15:14 UT
 
     The Minor Planet Electronic Circulars contain information on unusual
         minor planets and routine data on comets.  They are published
    on behalf of Division F of the International Astronomical Union by the
          Minor Planet Center, Smithsonian Astrophysical Observatory,
                          Cambridge, MA 02138, U.S.A.

             Prepared using the Tamkin Foundation Computer Network

                              MPC at CFA.HARVARD.EDU
            URL http://www.minorplanetcenter.net/    ISSN 1523-6714


                                   2016 RG40
 
Observations:
     K16R40G* C2016 09 11.23303 22 18 45.31 +20 16 57.4          20.6 VqES008G96
     K16R40G  C2016 09 11.23684 22 18 45.00 +20 16 55.4          20.3 VqES008G96
     K16R40G  C2016 09 11.24067 22 18 44.77 +20 16 54.2          20.8 VqES008G96
     K16R40G  C2016 09 11.24449 22 18 44.46 +20 16 52.1          20.0 VqES008G96
     K16R40G  C2016 09 11.40442 22 18 33.38 +20 15 38.9          20.2 VqES008G96
     K16R40G KC2016 09 11.41541 22 18 32.66 +20 15 33.7          20.4 RoES008291
     K16R40G  C2016 09 11.41862 22 18 32.46 +20 15 32.1          20.5 VqES008G96
     K16R40G KC2016 09 11.41993 22 18 32.35 +20 15 31.6          20.5 RoES008291
     K16R40G KC2016 09 11.42446 22 18 32.03 +20 15 29.6          20.6 RoES008291
     K16R40G  C2016 09 11.42480 22 18 32.08 +20 15 29.3          20.1 VqES008G96
     K16R40G  C2016 09 12.16062 22 17 44.44 +20 09 46.3          21.1 VoES008691
     K16R40G  C2016 09 12.17356 22 17 43.70 +20 09 40.5          20.9 VoES008691
     K16R40G  C2016 09 12.17852 22 17 43.36 +20 09 37.9          20.4 VqES008G96
     K16R40G  C2016 09 12.18648 22 17 42.80 +20 09 34.2          20.9 VoES008691
     K16R40G  C2016 09 12.18726 22 17 42.78 +20 09 33.5          20.4 VqES008G96
     K16R40G  C2016 09 12.18772 22 17 42.74 +20 09 33.3          20.3 VqES008G96
     K16R40G  C2016 09 12.18985 22 17 42.57 +20 09 32.9          20.0 VqES008G96
     K16R40G  C2016 09 12.19184 22 17 42.44 +20 09 31.8          20.7 VqES008G96
     K16R40G  C2016 09 12.19524 22 17 42.23 +20 09 29.7          20.7 VqES008G96
     K16R40G  C2016 09 12.20508 22 17 41.51 +20 09 25.9          20.6 VqES008G96
     K16R40G IC2016 09 13.09468 22 16 43.53 +20 02 04.2          20   VqES008H21
     K16R40G HC2016 09 13.10644 22 16 42.66 +20 01 59.6                qES008H21
     K16R40G ^C2016 09 14.21493 22 15 30.60 +19 52 19.0          19.9 RoES008695
     K16R40G ^C2016 09 14.22341 22 15 30.03 +19 52 14.5          19.9 RoES008695
     K16R40G ^C2016 09 14.23189 22 15 29.45 +19 52 09.9          19.8 RoES008695
     K16R40G KC2016 09 19.06652 22 10 26.40 +19 02 36.4          20.3 RqES008H36
     K16R40G KC2016 09 19.09628 22 10 24.49 +19 02 16.6          19.8 RqES008H36
     K16R40G KC2016 09 19.11116 22 10 23.48 +19 02 05.8          19.6 RqES008H36
     K16R40G  C2016 09 19.15378 22 10 21.02 +19 01 38.9          20.4 RoES008926
     K16R40G  C2016 09 19.15649 22 10 20.85 +19 01 37.0          20.3 RoES008926
     K16R40G  C2016 09 19.16844 22 10 20.05 +19 01 28.7          20.5 RoES008926
     K16R40G  C2016 09 19.17115 22 10 19.88 +19 01 26.8          20.4 RoES008926
     K16R40G  C2016 09 19.18206 22 10 19.18 +19 01 19.4          20.6 RoES008926
     K16R40G  C2016 09 19.18477 22 10 19.01 +19 01 17.7          20.6 RoES008926
     K16R40G "C2016 09 19.28495822 10 12.53 +19 00 07.8          20.4 RtES008705
     K16R40G "C2016 09 19.28599222 10 12.47 +19 00 07.1          20.3 RtES008705
     K16R40G "C2016 09 19.28701522 10 12.40 +19 00 06.3          20.3 RtES008705
 
Observer details:
291 LPL/Spacewatch II.  Observer R. S. McMillan.  1.8-m f/2.7 reflector + CCD.
691 Steward Observatory, Kitt Peak.  Observer R. S. McMillan.  0.9-m f/3
    reflector + CCD.
695 Kitt Peak.  Observer R. S. McMillan.  2.3-m f/9 reflector + CCD.
705 Apache Point.  Observers K. Nault, M. Hammergren, M. Brucker.  Measurer
    K. Nault.  3.5-m f/10 reflector + CCD.
926 Tenagra II Observatory.  Observers M. Schwartz, P. R. Holvorcem.  Measurer
    M. Schwartz.  0.81-m f/7 Ritchey-Chretien + CCD.
G96 Mt. Lemmon Survey.  Observers A. R. Gibbs, R. A. Kowalski.  Measurers
    E. J. Christensen, D. C. Fuls, A. R. Gibbs, A. D. Grauer, J. A. Johnson,
    R. A. Kowalski, S. M. Larson, G. J. Leonard, R. G. Matheny, R. L. Seaman,
    F. C. Shelly.  1.5-m reflector + 10K CCD.
H21 Astronomical Research Observatory, Westfield.  Observer R. Holmes.
    Measurers L. Buzzi, T. Linder, S. Foglia, T. Vorobjov.  0.61-m f/4.0
    astrograph + CCD.
H36 Sandlot Observatory, Scranton.  Observer G. Hug.  0.56-m reflector + CCD.
 
Orbital elements:
2016 RG40                                                Earth MOID = 0.2475 AU
Epoch 2016 July 31.0 TT = JDT 2457600.5                 MPC
M 323.07696              (2000.0)            P               Q
n   0.21961678     Peri.  202.39850     +0.32542566     -0.92551032
a   2.7207734      Node   229.19124     +0.90170846     +0.36542113
e   0.5508674      Incl.   14.82958     +0.28464011     -0.09948887
P   4.49           H   18.8           G   0.15           U   7
Residuals in seconds of arc
160911 G96  0.5+  0.1+    160912 691  0.1-  0.1-    160919 H36  0.0   0.0
160911 G96  0.1-  0.2-    160912 G96  0.5+  0.4-    160919 H36  0.9-  0.7-
160911 G96  0.4+  0.3+    160912 G96  0.4+  0.4-    160919 926  0.3+  0.4+
160911 G96  0.2-  0.1-    160912 G96  0.1+  0.2+    160919 926  0.4+  0.3+
160911 G96  0.3-  0.1+    160912 G96  0.2+  0.1+    160919 926  0.2-  0.2+
160911 291  0.0   0.0     160912 G96  0.5+  0.4-    160919 926  0.1-  0.1+
160911 G96  0.3+  0.0     160912 G96  0.0   0.4+    160919 926  0.1-  0.1+
160911 291  0.0   0.0     160913 H21  0.7+  0.6-    160919 926  0.1-  0.3+
160911 291  0.2-  0.1+    160913 H21  0.3-  0.6+    160919 705  0.1+  0.2-
160911 G96  0.9+  0.1+    160914 695  0.1+  0.1+    160919 705  0.2+  0.2-
160912 691  2.1-  0.2-    160914 695  0.2+  0.2+    160919 705  0.1+  0.3-
160912 691  0.1+  0.1+    160914 695  0.2+  0.2+
160912 G96  0.2+  0.1-    160919 H36  0.4+  0.2-

Ephemeris:
2016 RG40                a,e,i = 2.72, 0.55, 15                  q = 1.2220
Date    TT    R. A. (2000) Decl.     Delta      r     Elong.  Phase     V
2016 08 20    22 40 55.0 +20 58 03   1.0512  1.9672   144.9    17.2    21.3
...
2016 09 04    22 26 40.2 +20 57 27   0.9160  1.8640   151.2    15.1    20.8
...
2016 09 12    22 17 54.8 +20 11 06   0.8613  1.8090   151.1    15.6    20.6
...
2016 09 18    22 11 31.1 +19 14 36   0.8283  1.7680   149.2    16.9    20.5
2016 09 19    22 10 30.0 +19 03 27   0.8234  1.7611   148.8    17.2    20.5
2016 09 20    22 09 30.1 +18 51 50   0.8188  1.7543   148.3    17.5    20.5
...
2016 09 26    22 04 00.4 +17 32 46   0.7944  1.7136   144.7    19.8    20.5
...
2016 10 04    21 58 32.4 +15 26 36   0.7714  1.6600   138.7    23.4    20.4
...
2016 10 19    21 56 19.1 +10 57 13   0.7520  1.5623   126.1    31.0    20.5

A. U. Tomatic                (C) Copyright 2016 MPC           M.P.E.C. 2016-S08




More information about the Iaude mailing list